Location: Newark
(47.5000°N, 4.6167°E)
Time: 23:27:29
(UTC+00:00)

X-37B - Pass Details

Date: 12 December 2021
Orbit: 334 x 337 km, 45.0° (Epoch: 11 January)

Event Time Altitude Azimuth Distance (km) Brightness Sun altitude
Rises 17:18:52 0° 256° (WSW) 2,102 6.2 -14.2°
Reaches altitude 10° 17:20:54 10° 251° (WSW) 1,266 4.6 -14.5°
Maximum altitude 17:23:39 49° 175° (S) 442 0.9 -14.9°
Enters shadow 17:24:37 32° 120° (ESE) 606 1.2 -15.1°
